STARLINK-34147, 63965

Orbit data source: Space-Track

STARLINK-34147, 63965 is a payload satellite owned by SpaceX/Seattle (US) in LEO that was launched on Tue, 13 May 2025 UTC via an FALCON 9 launch vehicle from the Air Force Eastern Test Range (AFETR). Payload-class satellites include a variety of spacecraft equipped with specific instruments for various scientific and technological missions. These include communications satellites like Starlink; space stations such as the ISS; scientific satellites like the Hubble; Earth observation satellites from companies like Planet Labs, Umbra, and HawkEye 360; GPS; miniature CubeSats for education and research; and military/defense satellites.

Loading next visibility...
Identifier
63965, 2025-099P
Orbit
LEO
Country
Flag of USUS
Related business
Manufacturer
SpaceX/Seattle
Mission
Operational Commercial Communications
Bus & Motor
STARLINK V2MO, Unknown motor
Mass
575 kg wet, ~530 kg dry
Launch date (UTC)
2025-05-13 (11 months ago)
Launch vehicle
FALCON 9
Launch site
Air Force Eastern Test Range (AFETR)
Object type
Payload
Rocket body
Debris
Shape & HBR
Box + 2 Pan, 17.7 m
Radar Cross Section
36.964 m², Large (>1 m²)

Expand to show TLE details & history
Last TLE update: 14 hours ago

TLE from 14 hours ago
0 STARLINK-34147
1 63965U 25099P   26093.89728955  .00027852  00000-0  10179-2 0  9991
2 63965  43.0059  33.6695 0001295 273.9701  86.1002 15.27578987 51192
Epoch: 2026-04-03T21:32Z
TLE epoch observation values (Epoch: 2026-04-03T21:32:05.817Z)
Latitude
-0.00005°
Longitude
-121.57962°
Altitude
482.768 km
Speed
7.626 km/s
True Right ascension
02h 14m 40s
True Declination
0° 00' 00"
Sunlit
Object was in daylight at epoch
Visualization orbit readout
Latitude
Unknown
Longitude
Unknown
Altitude
Unknown
Speed
Unknown
Apparent Right ascension
Unknown
Apparent Declination
Unknown
Sunlit
N/A
Visualization observer readout
Local Sidereal Time
17:26:19
Azimuth
Unknown
Elevation
Unknown
Doppler factor
Unknown
Orbital elements
Apogee altitude
485.885 km
Perigee altitude
484.108 km
Semi-major axis
6,863.133 km
Eccentricity
0.00013
Inclination
43.0059°
RAAN
33.6695°
Arg. of periapsis
273.9701°
True anomaly
86.11501°
Mean anomaly
86.1002°
Eccentric anomaly
86.1076°
Mean motion
3.81733 °/min
Orbital period
94.31 mins
BSTAR
0.0010179
Loading maneuver chart data...
Computing Atmospheric mass density...
Loading historical data...
Loading historical data...
Loading historical data...
Loading historical data...
Loading historical data...
Loading historical data...
Loading historical data...

Documentation

Showing up to 5 results
|